Tracking 19146 objects as of 24-Apr-2018
HD Live streaming from Space Station
objects crossing your sky now

FENGYUN 1C DEB

Track FENGYUN 1C DEB now!
10-day predictions


NORAD ID: 31826
Int'l Code: 1999-025CHQ
Perigee: 756.6 km
Apogee: 944.4 km
Inclination: 98.7 °
Period: 101.8 minutes
Semi major axis: 7221 km
RCS: 0.0127 m2 (small)
Launch date: May 10, 1999
Source: People's Republic of China (PRC)
Launch site: Taiyaun Space Center, China (TSC)

Note: This is SATELLITE DEBRIS
aabbcc
Your satellite tracking list
Your tracking list is empty




NASA's NSSDC Master Catalog

Two Line Element Set (TLE):
1 31826U 99025CHQ 18112.90098559 +.00000153 +00000-0 +94629-4 0  9996
2 31826 098.7427 150.5455 0129973 276.6123 208.5314 14.14693172563186
Source of the keplerian elements: AFSPC